Location: Antoign�
(47.0844°N, 0.1131°W)
Time: 00:04:50
(UTC+00:00)

FALCON 9 DEB - Pass Details

Date: 03 March 2021
Orbit: 371 x 387 km, 53.0° (Epoch: 14 April)

Event Time Altitude Azimuth Distance (km) Brightness Sun altitude
Rises 19:19:15 0° 291° (WNW) 2,292 8.4 -16.1°
Reaches altitude 10° 19:21:30 10° 304° (NW) 1,435 6.8 -16.5°
Maximum altitude 19:24:20 28° 6° (N) 779 4.4 -17.0°
Enters shadow 19:25:04 25° 31° (NNE) 838 4.3 -17.1°
